Location: Izdebno
(52.6670°N, 16.2170°E)
Time: 10:13:42
(UTC+01:00)

Transit 2A - Pass Details

Date: 02 February 2023
Orbit: 591 x 964 km, 66.7° (Epoch: 21 March)

Event Time Altitude Azimuth Distance (km) Brightness Sun altitude
Rises 03:13:31 0° 314° (NW) 3,495 - -39.3°
Reaches altitude 10° 03:16:26 10° 301° (WNW) 2,602 - -38.9°
Maximum altitude 03:21:05 23° 251° (WSW) 1,879 - -38.2°
Drops below altitude 10° 03:25:53 10° 202° (SSW) 2,689 - -37.6°
Sets 03:28:58 0° 188° (S) 3,638 - -37.2°
